Location: Killarney
(45.9719°N, 81.5115°W)
Time: 08:24:09
(UTC-04:00)

ISS - Pass Details

Date: 24 April 2025
Orbit: 416 x 419 km, 51.6° (Epoch: 14 May)

Event Time Altitude Azimuth Distance (km) Brightness Sun altitude
Exits shadow 04:42:19 39° 206° (SSW) 637 -3.3 -16.1°
Maximum altitude 04:43:17 59° 147° (SSE) 487 -3.6 -16.0°
Drops below altitude 10° 04:46:36 10° 67° (ENE) 1,497 0.3 -15.6°
Sets 04:48:43 0° 64° (ENE) 2,363 1.7 -15.3°
